Location: Eindhoven
(51.4416°N, 5.4697°E)
Time: 22:05:05
(UTC+01:00)

deb Explorer IX - All Passes

Search period start: 17 November 2019 00:00
Search period end: 27 November 2019 00:00
Orbit: 546 x 1105 km, 38.8° (Epoch: 16 November)

Date Brightness Start Highest point End Pass type
(mag) Time Alt. Az. Time Alt. Az. Time Alt. Az.
17 Nov - 02:14:58 10° S 02:17:28 13° SSE 02:19:52 10° SE night (unlit)
17 Nov - 03:59:31 10° SW 04:03:28 20° S 04:07:01 10° SE visible
17 Nov - 05:46:11 10° SW 05:49:23 17° SSW 05:52:19 10° SSE visible
18 Nov - 01:52:34 10° S 01:55:29 14° SSE 01:58:14 10° SE night (unlit)
18 Nov - 03:37:19 10° SW 03:41:29 20° S 03:45:15 10° SE visible
18 Nov - 05:24:02 10° SW 05:27:26 17° SSW 05:30:33 10° SSE visible
19 Nov - 01:30:12 10° S 01:33:29 15° SSE 01:36:32 10° SE night (unlit)
19 Nov - 03:15:07 10° SW 03:19:31 21° S 03:23:29 10° SE visible
19 Nov - 05:01:52 10° SW 05:05:29 18° SSW 05:08:47 10° SSE visible
20 Nov - 01:07:52 10° SSW 01:11:27 15° SSE 01:14:49 10° SE night (unlit)
20 Nov - 02:52:54 10° SW 02:57:32 22° S 03:01:41 10° SE night (unlit)
20 Nov - 04:39:42 10° WSW 04:43:32 19° SSW 04:47:00 10° SSE visible
21 Nov - 00:45:32 10° SSW 00:49:24 16° SSE 00:53:02 10° ESE night (unlit)
21 Nov - 02:30:40 10° SW 02:35:31 23° S 02:39:52 10° SE night (unlit)
21 Nov - 04:17:30 10° WSW 04:21:33 19° SSW 04:25:12 10° SSE visible
22 Nov - 00:23:14 10° SSW 00:27:22 17° SSE 00:31:14 10° ESE night (unlit)
22 Nov - 02:08:26 10° SW 02:13:30 24° S 02:18:03 10° SE night (unlit)
22 Nov - 03:55:19 10° WSW 03:59:33 20° SSW 04:03:24 10° SSE visible
23 Nov - 00:00:56 10° SSW 00:05:18 18° SSE 00:09:24 10° ESE night (unlit)
23 Nov - 01:46:13 10° SW 01:51:28 25° S 01:56:11 10° SE night (unlit)
23 Nov - 03:33:06 10° WSW 03:37:33 21° SSW 03:41:34 10° SSE visible
23 Nov - 23:38:38 10° SSW 23:43:13 18° SSE 23:47:31 10° ESE night (unlit)
24 Nov - 01:23:58 10° SW 01:29:24 26° S 01:34:19 10° ESE night (unlit)
24 Nov - 03:10:53 10° WSW 03:15:32 21° SSW 03:19:43 10° SSE night (unlit)
24 Nov - 23:16:22 10° SSW 23:21:08 19° SSE 23:25:37 10° ESE night (unlit)
25 Nov - 01:01:45 10° SW 01:07:20 26° S 01:12:26 10° ESE night (unlit)
25 Nov - 02:48:39 10° WSW 02:53:30 22° SSW 02:57:51 10° SSE night (unlit)
25 Nov - 22:54:07 10° SSW 22:59:00 20° SSE 23:03:41 10° ESE night (unlit)
26 Nov - 00:39:31 10° SW 00:45:15 27° S 00:50:30 10° ESE night (unlit)
26 Nov - 02:26:26 10° WSW 02:31:26 22° SSW 02:35:58 10° SSE night (unlit)
26 Nov - 22:31:53 10° SSW 22:36:54 20° SSE 22:41:44 10° ESE night (unlit)
